| time (UTC) | temp F | wind direction | speed knots | gust knots | rain 1hr in | rain 24hr in | rain mn in | humidity % | barometer mb |
| 20260508183059 | 59 | 33 | 3.5 | 8.7 | 0.00 | 0.99 | 0.00 | 52 | 1000.2 |
| 20260508181552 | 59 | 36 | 4.3 | 9.6 | 0.00 | 0.99 | 0.00 | 53 | 1000.1 |
| 20260508180037 | 59 | 92 | 0.9 | 10.4 | 0.00 | 0.99 | 0.00 | 52 | 1000.5 |
| 20260508174533 | 58 | 351 | 3.5 | 10.4 | 0.00 | 1.01 | 0.00 | 53 | 1000.7 |
| 20260508173033 | 58 | 96 | 4.3 | 10.4 | 0.00 | 1.01 | 0.00 | 58 | 1000.8 |
| 20260508171529 | 57 | 360 | 2.6 | 9.6 | 0.00 | 1.01 | 0.00 | 60 | 1000.8 |
| 20260508170026 | 56 | 57 | 5.2 | 11.3 | 0.00 | 1.01 | 0.00 | 59 | 1001.1 |
| 20260508164523 | 55 | 355 | 4.3 | 7.8 | 0.00 | 1.01 | 0.00 | 63 | 1001.1 |
| 20260508163024 | 54 | 34 | 2.6 | 8.7 | 0.00 | 1.01 | 0.00 | 68 | 1001.3 |
| 20260508161518 | 54 | 25 | 3.5 | 9.6 | 0.00 | 1.01 | 0.00 | 67 | 1001.1 |
| 20260508160016 | 54 | 344 | 5.2 | 9.6 | 0.00 | 1.01 | 0.00 | 70 | 1000.9 |
| 20260508154538 | 54 | 5 | 5.2 | 8.7 | 0.00 | 1.01 | 0.00 | 72 | 1001.0 |
| 20260508153015 | 54 | 347 | 3.5 | 7.8 | 0.00 | 1.01 | 0.00 | 75 | 1001.2 |
| 20260508151515 | 54 | 290 | 3.5 | 8.7 | 0.00 | 1.01 | 0.00 | 77 | 1001.0 |
| 20260508150012 | 54 | 63 | 2.6 | 9.6 | 0.00 | 1.01 | 0.00 | 77 | 1000.9 |
| 20260508144510 | 54 | 11 | 3.5 | 9.6 | 0.00 | 1.02 | 0.00 | 78 | 1001.3 |
| 20260508143009 | 53 | 360 | 5.2 | 10.4 | 0.00 | 1.02 | 0.00 | 80 | 1001.0 |
| 20260508141505 | 52 | 347 | 3.5 | 8.7 | 0.00 | 1.02 | 0.00 | 84 | 1000.9 |
| 20260508140003 | 52 | 63 | 2.6 | 7.8 | 0.00 | 1.02 | 0.00 | 87 | 1001.4 |
| 20260508134501 | 52 | 32 | 3.5 | 8.7 | 0.00 | 1.08 | 0.00 | 87 | 1001.3 |
| 20260508133102 | 51 | 36 | 1.7 | 7.8 | 0.00 | 1.08 | 0.00 | 90 | 1001.6 |
| 20260508131555 | 50 | 355 | 1.7 | 5.2 | 0.00 | 1.08 | 0.00 | 91 | 1001.9 |
| 20260508130054 | 50 | 292 | 0.9 | 8.7 | 0.00 | 1.08 | 0.00 | 94 | 1001.8 |
| 20260508124550 | 48 | 5 | 2.6 | 7.8 | 0.00 | 1.08 | 0.00 | 95 | 1001.6 |
| 20260508123052 | 48 | 342 | 2.6 | 7.8 | 0.00 | 1.08 | 0.00 | 96 | 1001.4 |
| 20260508121547 | 48 | 32 | 3.5 | 8.7 | 0.00 | 1.08 | 0.00 | 96 | 1001.7 |
| 20260508120042 | 47 | 54 | 2.6 | 7.8 | 0.00 | 1.08 | 0.00 | 97 | 1001.8 |
| 20260508114539 | 46 | 19 | 3.5 | 9.6 | 0.00 | 1.08 | 0.00 | 96 | 1001.6 |
| 20260508113039 | 45 | 19 | 2.6 | 7.8 | 0.00 | 1.08 | 0.00 | 97 | 1001.8 |
| 20260508111523 | 45 | 19 | 1.7 | 5.2 | 0.00 | 1.08 | 0.00 | 96 | 1001.9 |
| 20260508110019 | 44 | 355 | 3.5 | 7.8 | 0.00 | 1.08 | 0.00 | 96 | 1001.9 |
| 20260508104517 | 45 | 338 | 2.6 | 7.8 | 0.00 | 1.08 | 0.00 | 96 | 1001.8 |
| 20260508103017 | 45 | 20 | 1.7 | 7.0 | 0.00 | 1.08 | 0.00 | 96 | 1002.1 |
| 20260508101513 | 45 | 52 | 1.7 | 4.3 | 0.00 | 1.08 | 0.00 | 96 | 1002.1 |
| 20260508100013 | 46 | 36 | 2.6 | 5.2 | 0.00 | 1.08 | 0.00 | 96 | 1001.9 |
| 20260508094509 | 46 | 15 | 1.7 | 4.3 | 0.00 | 1.08 | 0.00 | 96 | 1001.9 |
| 20260508093010 | 46 | 51 | 0.0 | 4.3 | 0.00 | 1.08 | 0.00 | 97 | 1001.7 |
| 20260508091507 | 46 | 70 | 1.7 | 4.3 | 0.00 | 1.08 | 0.00 | 97 | 1001.6 |
| 20260508090005 | 47 | 63 | 0.9 | 4.3 | 0.00 | 1.08 | 0.00 | 97 | 1001.7 |
| 20260508084503 | 46 | 52 | 0.9 | 3.5 | 0.00 | 1.09 | 0.00 | 97 | 1001.4 |
| 20260508083002 | 46 | 59 | 1.7 | 3.5 | 0.00 | 1.09 | 0.00 | 97 | 1001.5 |
| 20260508081606 | 44 | 37 | 0.0 | 1.7 | 0.00 | 1.09 | 0.00 | 97 | 1001.4 |
| 20260508080056 | 44 | 222 | 0.0 | 0.0 | 0.00 | 1.09 | 0.00 | 97 | 1001.1 |
| 20260508074555 | 44 | 222 | 0.0 | 0.0 | 0.00 | 1.12 | 0.00 | 96 | 1001.0 |
| 20260508073108 | 44 | 222 | 0.0 | 1.7 | 0.00 | 1.12 | 0.00 | 97 | 1000.9 |
| 20260508071552 | 44 | 222 | 0.0 | 0.0 | 0.00 | 1.12 | 0.00 | 96 | 1001.1 |
| 20260508070052 | 44 | 222 | 0.0 | 0.0 | 0.00 | 1.12 | 0.00 | 96 | 1001.2 |
| 20260508064559 | 44 | 222 | 0.0 | 0.0 | 0.00 | 1.12 | 0.00 | 96 | 1001.2 |
| 20260508063057 | 44 | 222 | 0.0 | 0.0 | 0.00 | 1.12 | 0.00 | 96 | 1001.1 |
| 20260508061554 | 44 | 222 | 0.0 | 0.0 | 0.00 | 1.12 | 0.00 | 96 | 1001.1 |
| 20260508054547 | 44 | 222 | 0.0 | 0.0 | 0.00 | 1.12 | 0.00 | 96 | 1001.1 |
| 20260508053046 | 44 | 222 | 0.0 | 0.0 | 0.00 | 1.12 | 0.00 | 96 | 1001.1 |
| 20260508051603 | 44 | 222 | 0.0 | 0.0 | 0.00 | 1.12 | 0.00 | 96 | 1001.0 |
| 20260508050044 | 44 | 222 | 0.0 | 0.0 | 0.00 | 1.12 | 0.00 | 96 | 1000.9 |
| 20260508044548 | 44 | 223 | 0.0 | 1.7 | 0.00 | 1.12 | 0.00 | 96 | 1001.2 |
| 20260508043041 | 44 | 223 | 0.0 | 0.0 | 0.00 | 1.12 | 0.00 | 96 | 1001.0 |
| 20260508041539 | 44 | 223 | 0.0 | 0.0 | 0.00 | 1.12 | 0.00 | 96 | 1001.3 |
| 20260508040049 | 44 | 223 | 0.0 | 0.0 | 0.00 | 1.12 | 0.00 | 96 | 1001.4 |
| 20260508034545 | 44 | 223 | 0.0 | 1.7 | 0.00 | 1.12 | 0.00 | 96 | 1001.8 |
| 20260508033037 | 44 | 223 | 0.0 | 0.9 | 0.00 | 1.12 | 0.00 | 96 | 1001.8 |
| 20260508031537 | 44 | 223 | 0.0 | 0.9 | 0.00 | 1.12 | 0.00 | 96 | 1001.9 |
| 20260508030031 | 43 | 223 | 0.0 | 2.6 | 0.00 | 1.12 | 0.00 | 96 | 1001.9 |
| 20260508024552 | 43 | 223 | 0.9 | 2.6 | 0.00 | 1.12 | 1.12 | 96 | 1001.9 |
| 20260508023030 | 43 | 210 | 0.0 | 1.7 | 0.00 | 1.12 | 1.12 | 96 | 1001.9 |
| 20260508021528 | 43 | 206 | 0.9 | 4.3 | 0.00 | 1.12 | 1.12 | 96 | 1001.8 |
| 20260508020027 | 43 | 241 | 1.7 | 4.3 | 0.00 | 1.12 | 1.12 | 96 | 1002.0 |
| 20260508014526 | 43 | 192 | 3.5 | 5.2 | 0.00 | 1.12 | 1.12 | 96 | 1002.1 |
| 20260508013024 | 43 | 166 | 1.7 | 4.3 | 0.00 | 1.12 | 1.12 | 96 | 1002.0 |
| 20260508011529 | 43 | 189 | 0.9 | 5.2 | 0.00 | 1.12 | 1.12 | 96 | 1001.8 |
| 20260508010021 | 44 | 223 | 2.6 | 4.3 | 0.00 | 1.12 | 1.12 | 96 | 1001.9 |
| 20260508004536 | 44 | 191 | 0.0 | 5.2 | 0.00 | 1.12 | 1.12 | 96 | 1002.4 |
| 20260508003018 | 44 | 223 | 1.7 | 5.2 | 0.00 | 1.12 | 1.12 | 96 | 1002.5 |
| 20260508001530 | 44 | 215 | 0.9 | 5.2 | 0.00 | 1.12 | 1.12 | 96 | 1002.3 |
| 20260508000016 | 45 | 234 | 2.6 | 6.1 | 0.00 | 1.12 | 1.12 | 96 | 1002.3 |
| 20260507234516 | 45 | 200 | 2.6 | 7.8 | 0.02 | 1.12 | 1.12 | 96 | 1002.3 |
| 20260507233014 | 45 | 229 | 3.5 | 8.7 | 0.06 | 1.12 | 1.12 | 96 | 1002.2 |
| 20260507231512 | 46 | 157 | 1.7 | 10.4 | 0.09 | 1.12 | 1.12 | 96 | 1002.5 |
| 20260507230011 | 46 | 175 | 5.2 | 10.4 | 0.14 | 1.12 | 1.12 | 96 | 1002.7 |
| 20260507224512 | 46 | 153 | 2.6 | 9.6 | 0.17 | 1.10 | 1.10 | 96 | 1002.9 |
| 20260507223010 | 46 | 184 | 2.6 | 7.8 | 0.20 | 1.07 | 1.07 | 96 | 1002.8 |
| 20260507221507 | 46 | 173 | 5.2 | 10.4 | 0.22 | 1.03 | 1.03 | 96 | 1002.8 |
| 20260507220011 | 47 | 182 | 3.5 | 7.8 | 0.24 | 0.98 | 0.98 | 96 | 1003.1 |
| 20260507214507 | 47 | 219 | 1.7 | 10.4 | 0.26 | 0.93 | 0.93 | 96 | 1003.4 |
| 20260507213006 | 47 | 125 | 4.3 | 7.8 | 0.27 | 0.87 | 0.87 | 96 | 1003.0 |
| 20260507211506 | 47 | 105 | 5.2 | 8.7 | 0.28 | 0.81 | 0.81 | 96 | 1002.6 |
| 20260507210003 | 47 | 120 | 0.9 | 7.0 | 0.28 | 0.74 | 0.74 | 96 | 1003.3 |
| 20260507204602 | 46 | 169 | 1.7 | 7.8 | 0.28 | 0.68 | 0.68 | 96 | 1004.0 |
| 20260507203127 | 46 | 157 | 2.6 | 7.8 | 0.28 | 0.61 | 0.61 | 96 | 1004.2 |
| 20260507201556 | 45 | 153 | 2.6 | 4.3 | 0.26 | 0.53 | 0.53 | 96 | 1004.3 |
| 20260507200056 | 45 | 199 | 1.7 | 7.8 | 0.24 | 0.46 | 0.46 | 95 | 1004.9 |
| 20260507194606 | 45 | 211 | 4.3 | 7.8 | 0.19 | 0.39 | 0.39 | 95 | 1005.5 |
| 20260507193050 | 45 | 297 | 1.7 | 8.7 | 0.16 | 0.32 | 0.32 | 95 | 1005.0 |
| 20260507191549 | 45 | 109 | 3.5 | 10.4 | 0.12 | 0.27 | 0.27 | 95 | 1005.4 |
| 20260507190055 | 45 | 178 | 3.5 | 12.2 | 0.09 | 0.23 | 0.23 | 95 | 1005.3 |
| 20260507184544 | 46 | 132 | 3.5 | 14.8 | 0.07 | 0.19 | 0.19 | 95 | 1006.0 |